カタログに戻る

COSMOS 2499

運用中軍事PO
NORAD 39765·PAYLOAD·🇷🇺 Russia

打ち上げ May 23, 2014 から Plesetsk Cosmodrome

Loading…

次のパス (今後24時間)

TLE

最新Source: Space-Track

元期: Sep 14, 2026, 13:48 UTC

1 39765U 14028E   26257.57519041  .00000043  00000-0  11642-3 0  9993
2 39765  82.4526 192.1141 0231914 151.4922 209.9096 12.82904577576482

AllMySatでCOSMOS 2499をリアルタイム追跡

Download on the App Store